Location: Anciles
(42.5833°N, 0.5167°E)
Time: 20:52:53
(UTC+00:00)

N. Korean satellite - Visible Passes

Search period start: 23 February 2020 00:00
Search period end: 04 March 2020 00:00
Orbit: 456 x 505 km, 97.2° (Epoch: 23 February)

Date Brightness Start Highest point End Pass type
(mag) Time Alt. Az. Time Alt. Az. Time Alt. Az.
23 Feb 6.6 05:52:09 10° N 05:55:53 81° WNW 05:59:34 10° SSW visible
24 Feb 7.8 05:26:43 10° NNE 05:30:20 46° E 05:33:53 10° S visible
25 Feb 9.3 05:01:41 10° NE 05:04:40 22° E 05:07:37 10° SSE visible
26 Feb 10.2 04:37:41 10° ENE 04:38:55 11° E 04:40:08 10° ESE visible
26 Feb 6.9 06:08:59 10° N 06:12:34 48° WNW 06:16:07 10° SSW visible
27 Feb 6.8 05:43:21 10° NNE 05:47:04 78° ESE 05:50:44 10° S visible
28 Feb 8.4 05:18:01 10° NNE 05:21:28 35° E 05:24:51 10° SSE visible
29 Feb 9.7 04:53:11 10° NE 04:55:47 18° E 04:58:19 10° SE visible
01 Mar 6.6 06:00:05 10° N 06:03:46 62° WNW 06:07:21 10° SSW visible
02 Mar 7.3 05:34:33 10° NNE 05:38:13 59° E 05:41:48 10° S visible
03 Mar 8.9 05:09:22 10° NE 05:12:34 28° E 05:15:43 10° SSE visible
